Time,TemperatureF,DewpointF,PressureIn,WindDirection,WindDirectionDegrees,WindSpeedMPH,WindSpeedGustMPH,Humidity,HourlyPrecipIn,Conditions,Clouds,dailyrainin,SoftwareType,DateUTC
2013-04-21 00:01:00,43.0,26.0,-100.00,ESE,108,0.0,0.0,50,0.00,,,0.00,,2013-04-21 07:01:00,
2013-04-21 00:21:00,43.0,26.0,-100.00,ESE,108,0.0,0.0,50,0.00,,,0.00,,2013-04-21 07:21:00,
2013-04-21 00:52:00,40.0,25.0,-100.00,SSE,152,0.0,0.0,54,0.00,,,0.00,,2013-04-21 07:52:00,
2013-04-21 01:52:00,38.0,25.0,-100.00,ENE,63,0.0,0.0,60,-99.99,,,0.00,,2013-04-21 08:52:00,
2013-04-21 02:01:00,38.0,25.0,-100.00,ENE,63,0.0,0.0,60,-99.99,,,0.00,,2013-04-21 09:01:00,
2013-04-21 02:53:00,36.0,24.0,-100.00,SE,142,0.0,0.0,62,-99.99,,,0.00,,2013-04-21 09:53:00,
2013-04-21 04:52:00,34.0,25.0,-100.00,SE,134,0.0,0.0,69,-99.99,,,0.00,,2013-04-21 11:52:00,
2013-04-21 05:52:00,33.0,25.0,-100.00,SE,145,0.0,0.0,71,-99.99,,,0.00,,2013-04-21 12:52:00,
2013-04-21 06:52:00,33.0,26.0,-100.00,ESE,112,0.0,0.0,75,-99.99,,,0.00,,2013-04-21 13:52:00,
2013-04-21 07:52:00,45.0,29.0,-100.00,SE,129,0.0,0.0,53,-99.99,,,0.00,,2013-04-21 14:52:00,
2013-04-21 08:02:00,45.0,29.0,-100.00,SE,129,0.0,0.0,53,-99.99,,,0.00,,2013-04-21 15:02:00,
2013-04-21 08:11:00,45.0,29.0,-100.00,SE,129,0.0,0.0,53,-99.99,,,0.00,,2013-04-21 15:11:00,
2013-04-21 08:53:00,65.0,32.0,-100.00,SSE,164,0.0,0.0,29,-99.99,,,0.00,,2013-04-21 15:53:00,
2013-04-21 09:03:00,65.0,32.0,-100.00,SSE,164,0.0,0.0,29,-99.99,,,0.00,,2013-04-21 16:03:00,
2013-04-21 09:12:00,65.0,32.0,-100.00,SSE,164,0.0,0.0,29,-99.99,,,0.00,,2013-04-21 16:12:00,
2013-04-21 09:22:00,65.0,32.0,-100.00,SSE,164,0.0,0.0,29,-99.99,,,0.00,,2013-04-21 16:22:00,
2013-04-21 09:52:00,79.0,26.0,-100.00,ENE,59,0.0,0.0,14,0.00,,,0.00,,2013-04-21 16:52:00,
2013-04-21 10:02:00,79.0,26.0,-100.00,ENE,59,0.0,0.0,14,0.00,,,0.00,,2013-04-21 17:02:00,
2013-04-21 10:22:00,79.0,26.0,-100.00,ENE,59,0.0,0.0,14,0.00,,,0.00,,2013-04-21 17:22:00,
2013-04-21 10:52:00,80.0,19.0,-100.00,South,171,4.0,8.0,10,0.00,,,0.00,,2013-04-21 17:52:00,
2013-04-21 11:02:00,80.0,19.0,-100.00,South,171,4.0,8.0,10,0.00,,,0.00,,2013-04-21 18:02:00,
2013-04-21 11:11:00,80.0,19.0,-100.00,South,171,4.0,8.0,10,0.00,,,0.00,,2013-04-21 18:11:00,
2013-04-21 11:21:00,80.0,19.0,-100.00,South,171,4.0,8.0,10,0.00,,,0.00,,2013-04-21 18:21:00,
2013-04-21 11:52:00,81.0,19.0,-100.00,South,178,4.0,14.0,10,0.00,,,0.00,,2013-04-21 18:52:00,
2013-04-21 12:02:00,81.0,19.0,-100.00,South,178,4.0,14.0,10,0.00,,,0.00,,2013-04-21 19:02:00,
2013-04-21 12:11:00,81.0,19.0,-100.00,South,178,4.0,14.0,10,0.00,,,0.00,,2013-04-21 19:11:00,
2013-04-21 12:21:00,81.0,19.0,-100.00,South,178,4.0,14.0,10,0.00,,,0.00,,2013-04-21 19:21:00,
2013-04-21 13:52:00,85.0,22.0,-100.00,WSW,250,3.0,12.0,10,-99.99,,,0.00,,2013-04-21 20:52:00,
2013-04-21 14:02:00,85.0,22.0,-100.00,WSW,250,3.0,12.0,10,-99.99,,,0.00,,2013-04-21 21:02:00,
2013-04-21 14:12:00,85.0,22.0,-100.00,WSW,250,3.0,12.0,10,-99.99,,,0.00,,2013-04-21 21:12:00,
2013-04-21 14:21:00,85.0,22.0,-100.00,WSW,250,3.0,12.0,10,-99.99,,,0.00,,2013-04-21 21:21:00,
2013-04-21 14:53:00,83.0,23.0,-100.00,WNW,299,5.0,12.0,11,0.00,,,0.00,,2013-04-21 21:53:00,
2013-04-21 15:02:00,83.0,23.0,-100.00,WNW,299,5.0,12.0,11,0.00,,,0.00,,2013-04-21 22:02:00,
2013-04-21 15:12:00,83.0,23.0,-100.00,WNW,299,5.0,12.0,11,0.00,,,0.00,,2013-04-21 22:12:00,
2013-04-21 15:22:00,83.0,23.0,-100.00,WNW,299,5.0,12.0,11,0.00,,,0.00,,2013-04-21 22:22:00,
2013-04-21 15:52:00,82.0,22.0,-100.00,North,351,4.0,15.0,11,0.00,,,0.00,,2013-04-21 22:52:00,
2013-04-21 16:02:00,82.0,22.0,-100.00,North,351,4.0,15.0,11,0.00,,,0.00,,2013-04-21 23:02:00,
2013-04-21 16:12:00,82.0,22.0,-100.00,North,351,4.0,15.0,11,0.00,,,0.00,,2013-04-21 23:12:00,
2013-04-21 16:22:00,82.0,22.0,-100.00,North,351,4.0,15.0,11,0.00,,,0.00,,2013-04-21 23:22:00,
2013-04-21 16:52:00,80.0,21.0,-100.00,ESE,118,4.0,13.0,11,0.00,,,0.00,,2013-04-21 23:52:00,
2013-04-21 17:01:00,80.0,21.0,-100.00,ESE,118,4.0,13.0,11,0.00,,,0.00,,2013-04-22 00:01:00,
2013-04-21 17:11:00,80.0,21.0,-100.00,ESE,118,4.0,13.0,11,0.00,,,0.00,,2013-04-22 00:11:00,
2013-04-21 17:21:00,80.0,21.0,-100.00,ESE,118,4.0,13.0,11,0.00,,,0.00,,2013-04-22 00:21:00,
2013-04-21 17:52:00,79.0,18.0,-100.00,South,174,3.0,15.0,10,0.00,,,0.00,,2013-04-22 00:52:00,
2013-04-21 18:01:00,79.0,18.0,-100.00,South,174,3.0,15.0,10,0.00,,,0.00,,2013-04-22 01:01:00,
2013-04-21 18:11:00,79.0,18.0,-100.00,South,174,3.0,15.0,10,0.00,,,0.00,,2013-04-22 01:11:00,
2013-04-21 18:21:00,79.0,18.0,-100.00,South,174,3.0,15.0,10,0.00,,,0.00,,2013-04-22 01:21:00,
2013-04-21 18:52:00,73.0,19.0,-100.00,WNW,293,2.0,12.0,13,0.00,,,0.00,,2013-04-22 01:52:00,
2013-04-21 19:01:00,73.0,19.0,-100.00,WNW,293,2.0,12.0,13,0.00,,,0.00,,2013-04-22 02:01:00,
2013-04-21 19:11:00,73.0,19.0,-100.00,WNW,293,2.0,12.0,13,0.00,,,0.00,,2013-04-22 02:11:00,
2013-04-21 19:21:00,73.0,19.0,-100.00,WNW,293,2.0,12.0,13,0.00,,,0.00,,2013-04-22 02:21:00,
2013-04-21 19:52:00,64.0,22.0,-100.00,NNW,343,1.0,10.0,20,0.00,,,0.00,,2013-04-22 02:52:00,
2013-04-21 20:11:00,64.0,22.0,-100.00,NNW,343,1.0,10.0,20,0.00,,,0.00,,2013-04-22 03:11:00,
2013-04-21 20:22:00,64.0,22.0,-100.00,NNW,343,1.0,10.0,20,0.00,,,0.00,,2013-04-22 03:22:00,
2013-04-21 21:53:00,52.0,25.0,-100.00,NNE,15,0.0,0.0,34,0.00,,,0.00,,2013-04-22 04:53:00,
2013-04-21 22:02:00,52.0,25.0,-100.00,NNE,15,0.0,0.0,34,0.00,,,0.00,,2013-04-22 05:02:00,
2013-04-21 22:22:00,52.0,25.0,-100.00,NNE,15,0.0,0.0,34,0.00,,,0.00,,2013-04-22 05:22:00,
2013-04-21 22:52:00,47.0,25.0,-100.00,NNE,21,0.0,0.0,41,0.00,,,0.00,,2013-04-22 05:52:00,
2013-04-21 23:52:00,43.0,24.0,-100.00,SSE,153,0.0,0.0,46,-99.99,,,0.00,,2013-04-22 06:52:00,